Temperature
20 20 21 20 20 20 20 19 19 19 20 19 19 19 18 18 18 18 18 18 18 18 18 18 18 18 18 18 18 18 18 18 18 18 18 18 18 18 18 18 18 17 18
19 19 21 20 20 20 20 19 19 19 20 20 19 19 18 18 18 18 18 18 18 18 18 18 18 18 18 18 18 18 18 18 18 18 18 17 18 18 18 18 17 17 18
18 19 20 20 19 20 20 19 19 19 19 19 19 19 18 18 18 18 18 18 18 18 18 18 18 18 18 18 18 18 18 18 18 18 18 18 18 17 17 18 17 17 18
18 19 20 20 19 19 20 19 19 18 18 18 18 18 18 18 18 18 18 18 17 17 17 18 18 18 18 18 17 18 18 17 17 18 18 17 17 17 17 17 17 17 17
19 20 20 20 20 20 20 19 19 19 18 18 18 18 18 18 18 18 18 18 18 17 17 17 17 17 18 18 17 17 18 18 18 18 18 18 17 17 17 17 17 17 17
19 19 20 20 19 20 20 19 18 18 18 18 18 18 18 18 18 17 18 18 18 17 17 18 17 17 17 17 17 17 17 18 18 17 17 17 17 17 17 18 18 17 17
19 19 20 20 20 20 20 19 19 18 18 18 18 18 18 18 17 17 17 17 18 17 17 17 17 17 17 17 18 18 18 18 17 17 17 17 17 17 17 17 17 17 17
19 19 20 21 20 20 19 19 20 18 18 18 18 18 18 18 18 17 17 17 17 17 17 17 18 17 16 17 17 18 18 18 17 17 17 16 17 17 17 17 17 17 17
19 19 19 19 20 20 20 19 18 18 18 17 17 17 17 17 17 17 17 17 17 17 17 17 17 17 16 17 17 17 17 17 17 17 17 17 17 17 18 18 18 17 17
19 19 19 19 19 19 19 19 18 18 17 17 17 17 17 17 17 17 17 17 17 17 17 17 16 16 16 16 17 18 17 17 17 18 17 17 18 18 18 18 18 18 18
19 19 20 19 19 19 18 19 18 18 17 17 17 17 17 16 17 16 17 16 17 17 16 16 16 16 16 16 16 17 17 17 17 17 17 18 18 18 18 18 18 18 18
20 20 21 20 19 18 17 18 18 17 16 16 16 16 16 16 16 16 17 17 17 16 16 16 16 15 15 16 16 16 16 16 16 16 16 18 18 18 18 18 18 18 18
21 21 21 22 21 19 18 18 17 17 16 16 16 16 16 16 16 16 16 16 16 16 16 16 15 15 15 15 15 15 15 15 15 15 15 17 17 18 18 18 18 18 18
21 21 22 22 22 21 19 19 18 17 16 16 16 16 16 16 15 15 16 16 16 16 15 15 15 15 15 15 15 16 16 16 16 16 16 17 17 17 17 17 17 17 17
21 21 22 21 22 21 20 19 18 18 17 16 16 16 15 15 15 15 15 16 16 15 15 15 15 15 15 15 16 16 17 17 17 17 16 16 17 17 17 17 17 17 17
21 20 21 21 20 20 20 20 18 18 17 16 15 16 16 15 15 15 15 15 15 15 14 15 15 15 15 15 15 16 16 16 16 17 17 16 16 17 17 17 16 16 16
20 20 20 20 20 19 19 19 18 18 16 16 16 16 16 15 15 14 15 14 14 15 15 15 15 15 15 15 15 15 15 15 15 15 16 15 15 15 16 16 16 16 15
20 19 20 20 19 18 18 18 17 17 16 16 15 15 16 15 15 15 14 14 15 15 14 14 14 14 14 14 15 15 15 14 14 14 15 15 15 15 15 15 15 15 15
20 19 19 20 18 18 18 18 17 16 16 16 15 15 16 16 15 15 14 14 15 14 14 14 13 13 13 13 14 14 14 14 14 14 14 14 14 14 14 14 14 14 14
19 19 19 18 16 16 17 17 17 16 16 16 15 15 16 16 16 15 14 14 14 14 14 13 13 12 12 12 13 13 13 13 14 13 13 13 13 13 13 13 14 13 13
18 17 17 17 17 15 15 16 16 15 15 15 15 16 15 15 15 15 14 14 13 13 13 13 12 12 12 12 12 12 13 13 14 14 13 13 13 13 13 13 13 13 13
17 16 15 15 16 15 15 16 16 15 14 14 14 14 14 14 14 14 14 13 12 12 11 11 10 11 11 12 12 12 12 14 14 14 14 13 13 12 13 13 13 12 12
15 14 14 14 14 14 14 14 15 14 14 13 13 12 13 13 12 13 12 11 11 11 11 11 10 10 11 11 11 11 12 13 13 13 13 13 12 12 12 12 12 11 11
13 13 13 13 12 13 13 13 13 14 14 13 12 11 11 11 11 11 10 10 10 10 10 10 10 9 9 10 11 11 11 11 11 11 12 12 12 11 11 11 11 10 10
13 13 12 12 12 12 13 13 13 12 12 11 11 10 11 10 10 10 9 9 9 9 9 9 8 8 9 9 10 10 10 10 10 10 11 11 11 11 10 10 9 9 9
13 12 12 13 13 13 13 13 12 11 10 10 9 10 10 10 10 9 8 8 8 8 8 7 7 6 6 7 7 7 8 9 9 10 10 11 11 11 10 10 9 8 8
Wind_Speed
10 15 14 12 11 11 10 9 9 11 13 13 15 15 15 14 12 10 10 8 6 5 6 6 6 6 7 7 7 7 8 7 7 5 2 1 2 2 2 2 4 4 10
11 14 13 11 9 10 11 10 9 10 12 14 14 14 15 13 11 9 8 7 5 5 6 6 6 6 6 6 6 6 6 6 5 4 4 5 6 4 2 4 8 2 6
12 13 13 11 9 11 11 10 9 9 10 12 13 13 14 13 11 10 8 6 5 5 4 5 5 5 5 4 5 5 5 4 4 3 6 6 2 6 3 6 9 8 7
12 12 13 11 12 14 12 9 9 9 10 11 12 11 11 10 10 9 8 5 4 3 2 2 3 3 4 5 5 5 5 4 4 6 7 2 3 8 7 9 10 10 9
12 12 14 12 14 16 14 8 9 10 10 9 10 11 11 9 8 6 7 5 3 2 2 4 4 5 6 6 6 6 5 5 7 11 4 2 4 8 10 10 9 6 8
14 15 14 14 14 15 15 10 9 10 10 8 8 9 10 9 8 5 6 7 6 3 3 6 7 6 8 9 9 7 6 6 9 8 6 2 2 12 9 9 8 6 6
15 15 15 16 12 13 14 12 10 9 9 9 8 9 10 8 4 3 4 6 7 4 4 10 13 16 16 13 11 9 8 7 5 4 5 5 12 13 10 10 9 7 6
14 13 14 16 13 13 12 11 12 10 9 10 9 9 9 8 6 4 6 6 6 7 11 17 21 19 16 14 13 11 9 9 5 4 6 8 13 13 11 12 10 8 7
11 10 10 12 13 14 14 11 10 10 11 11 9 9 9 8 7 6 7 8 11 12 11 13 13 13 12 11 11 12 12 8 4 3 4 5 13 12 10 11 11 10 9
10 9 8 9 8 10 13 11 12 12 12 11 10 9 8 6 6 6 5 9 11 12 11 10 10 8 8 9 8 9 7 5 9 7 4 8 10 9 9 10 11 12 11
10 8 8 8 7 9 11 10 11 11 10 11 9 8 6 4 5 5 8 11 12 13 12 11 7 6 6 6 5 7 9 9 8 7 6 9 11 10 9 9 10 10 11
11 10 8 8 8 8 8 7 7 7 8 8 8 7 6 6 6 7 10 11 11 10 10 9 7 8 5 0 2 0 5 5 4 3 4 7 10 10 10 10 10 10 10
11 9 9 7 6 7 6 6 6 5 6 7 7 5 6 5 6 6 7 7 7 6 6 6 5 2 3 4 5 5 6 7 7 6 2 2 9 11 11 10 9 10 10
11 9 9 8 6 6 6 5 5 4 3 3 6 3 4 4 4 4 4 5 4 4 3 2 3 3 4 6 7 8 9 8 9 9 5 1 6 10 10 10 10 10 10
11 9 9 8 7 6 6 5 5 5 4 5 6 6 4 5 4 4 3 2 3 3 3 2 3 4 6 6 8 8 9 10 10 9 10 6 5 8 11 12 12 11 10
11 11 9 8 8 8 7 6 6 7 7 6 6 6 5 4 4 3 3 2 1 3 4 4 5 6 7 8 9 10 11 13 13 12 12 11 8 9 10 11 12 12 11
10 10 9 8 7 8 9 8 8 8 8 6 6 6 6 4 3 1 2 1 1 3 4 5 7 8 9 10 12 13 13 14 15 15 15 15 12 12 13 12 12 11 12
10 10 9 7 7 7 8 8 7 8 8 7 6 6 5 3 2 1 1 2 2 5 6 8 9 10 11 12 13 14 14 15 17 18 18 16 15 15 13 16 13 11 12
8 8 9 9 9 6 6 7 6 6 6 6 6 5 5 4 3 3 4 4 6 7 8 8 9 10 12 14 15 15 16 17 18 18 18 17 18 17 16 12 14 13 14
6 8 12 11 11 2 2 5 5 5 5 5 5 5 6 5 5 5 6 5 6 7 7 7 8 10 11 13 14 16 16 16 15 15 16 15 16 16 17 16 13 13 16
6 9 13 15 14 2 9 6 4 4 4 4 4 5 4 2 2 4 6 5 5 6 6 7 8 10 11 11 13 15 16 17 17 15 13 14 13 14 16 18 17 16 13
3 6 12 11 12 8 8 0 2 2 3 3 4 3 3 4 5 5 5 6 6 7 7 7 8 10 12 13 13 16 19 19 17 15 14 12 14 14 16 17 17 18 17
6 8 11 12 12 6 2 1 4 4 4 3 2 2 5 5 5 6 7 8 8 9 10 10 11 14 15 16 15 16 17 19 18 17 17 17 16 16 18 17 17 20 21
11 11 11 12 12 8 4 3 5 4 4 5 5 5 5 5 7 8 9 10 10 11 12 12 13 15 17 18 17 16 18 19 19 18 19 18 19 19 18 17 18 17 19
14 14 14 14 14 12 11 9 8 8 6 5 7 8 8 8 10 11 12 12 12 13 14 15 16 17 16 18 19 19 19 19 20 20 22 21 19 17 16 16 16 15 17
15 14 14 15 15 14 14 14 13 11 9 9 10 11 11 12 12 13 15 15 15 15 16 16 17 19 18 19 19 19 19 20 20 20 21 23 20 19 17 16 16 16 15
Wind_Direction
136 126 125 129 125 118 111 105 103 101 97 107 120 123 126 128 129 128 129 135 130 105 82 73 72 63 59 65 69 65 55 46 38 32 353 258 186 163 172 174 211 196 131
136 133 123 114 117 119 116 113 112 110 111 112 116 120 120 118 116 111 112 109 97 78 65 60 79 85 78 71 70 69 62 48 42 24 330 259 194 153 236 257 262 347 144
131 135 124 113 118 118 112 109 110 111 112 114 114 112 113 113 111 105 105 108 102 88 73 67 78 72 67 58 51 50 49 41 27 345 276 273 117 84 343 289 263 239 187
126 130 122 119 113 106 101 110 115 112 110 114 112 108 101 98 100 107 108 106 106 103 88 83 68 26 21 5 358 2 5 357 322 276 257 317 354 72 11 333 302 236 211
119 114 108 115 110 110 113 115 114 114 113 119 122 120 111 98 83 87 95 85 85 85 48 21 11 356 347 344 339 332 327 323 299 272 280 39 336 54 21 344 327 243 231
119 110 102 101 101 110 111 119 130 119 114 117 116 115 112 99 86 78 91 89 91 72 20 35 23 9 360 356 351 344 340 328 288 301 338 82 35 28 1 332 334 319 288
113 103 87 79 90 96 108 135 125 107 104 108 116 113 106 107 106 120 79 77 91 87 48 45 40 36 42 38 33 32 27 357 309 327 324 354 31 18 345 334 323 308 294
114 109 102 87 87 103 112 103 105 108 108 116 119 119 123 133 140 114 65 53 53 62 67 62 63 57 46 32 18 16 24 6 327 358 4 22 31 8 354 349 344 329 309
123 116 114 108 98 86 82 86 97 104 107 111 111 120 123 128 122 89 62 60 71 76 83 83 74 63 63 58 42 28 27 10 349 342 325 9 15 354 349 345 342 341 329
126 121 116 114 119 116 101 96 94 92 95 98 104 113 114 123 110 96 84 93 93 89 92 104 117 123 96 87 74 55 20 11 18 6 3 13 353 343 340 337 332 330 325
134 134 133 124 116 101 104 113 107 104 113 116 113 110 129 116 107 100 80 87 94 94 98 108 126 150 162 140 88 57 34 26 21 17 4 351 335 331 328 326 323 316 315
144 139 122 121 120 114 109 109 105 118 111 103 100 105 109 105 100 107 93 95 101 112 121 130 154 183 214 33 52 185 21 15 35 17 339 334 324 321 320 314 309 309 310
136 126 114 109 107 111 109 121 117 113 113 111 102 100 103 110 118 122 119 128 131 157 152 158 157 97 28 4 348 343 351 356 354 344 355 308 312 313 307 296 295 300 303
144 134 127 130 126 116 124 122 118 112 103 99 91 106 125 123 114 116 116 113 118 98 85 52 60 12 351 349 343 338 339 341 341 330 333 329 314 309 300 292 283 288 297
153 150 145 143 144 141 131 114 110 108 96 85 100 81 85 106 113 123 104 83 70 64 62 15 356 331 318 316 315 314 312 314 314 312 311 307 295 290 290 283 278 285 293
168 165 154 152 149 141 119 112 111 100 104 102 92 88 87 102 113 127 154 150 56 10 358 331 326 311 306 302 299 302 301 302 302 298 293 294 262 250 268 278 282 289 293
178 165 159 156 144 129 120 118 109 108 110 102 97 100 96 102 110 142 144 213 337 324 303 300 296 295 295 298 298 298 296 297 298 296 295 296 285 241 229 240 258 272 283
190 177 164 143 129 120 114 110 106 110 113 110 113 116 109 109 110 200 204 243 286 285 289 291 292 295 293 292 293 293 295 295 291 287 282 283 285 283 244 221 224 248 260
202 187 154 133 115 111 111 106 108 118 121 126 139 148 149 164 180 225 241 249 256 273 276 281 285 294 295 292 291 290 291 292 290 287 286 284 283 277 273 240 209 226 241
203 170 144 126 94 36 146 130 130 131 132 142 152 152 166 182 199 234 256 257 266 278 285 301 304 297 292 291 293 292 289 286 286 285 282 278 273 268 267 263 257 245 225
202 160 140 132 120 178 249 181 173 145 134 147 147 153 163 183 248 274 285 279 285 297 307 303 299 299 299 300 299 295 293 290 280 274 276 274 276 273 265 269 271 268 265
173 143 141 153 139 186 256 11 87 107 118 122 128 107 40 358 329 323 335 324 333 318 302 297 303 298 295 297 298 299 296 293 285 282 280 274 266 273 271 268 266 276 280
100 121 125 131 134 143 80 213 130 149 151 164 117 8 6 340 337 351 345 335 328 313 308 311 299 296 296 297 290 288 293 292 299 291 284 277 276 273 271 270 272 277 279
93 99 104 111 116 111 118 105 69 45 30 20 348 354 332 341 342 341 338 333 325 314 305 297 295 296 290 289 289 284 282 286 286 289 281 277 273 271 270 270 271 271 278
87 89 87 85 79 73 65 55 52 43 29 6 359 339 329 337 330 328 327 324 314 305 301 295 292 288 286 285 286 288 285 280 274 276 281 279 274 272 272 274 280 281 281
77 79 76 72 66 61 58 54 49 40 20 3 353 336 339 330 323 322 323 317 308 303 300 298 295 289 286 285 283 283 281 279 279 278 278 277 276 273 273 269 266 270 273
Height
1535 1533 1535 1537 1538 1538 1539 1541 1543 1544 1546 1547 1548 1549 1550 1551 1552 1552 1552 1553 1554 1554 1555 1554 1554 1556 1557 1557 1556 1556 1556 1556 1555 1555 1554 1554 1554 1554 1554 1554 1554 1556 1555
1535 1535 1537 1539 1540 1540 1541 1542 1544 1546 1547 1548 1548 1549 1551 1552 1553 1552 1553 1553 1554 1555 1556 1556 1555 1556 1557 1557 1557 1556 1555 1555 1555 1554 1554 1554 1554 1553 1553 1553 1553 1555 1554
1535 1537 1538 1540 1540 1540 1542 1544 1545 1546 1547 1548 1550 1551 1552 1552 1553 1553 1553 1554 1555 1556 1557 1557 1557 1557 1557 1557 1557 1556 1555 1555 1554 1554 1553 1555 1555 1553 1552 1552 1552 1552 1552
1534 1538 1540 1540 1540 1541 1543 1545 1548 1547 1547 1548 1549 1550 1552 1553 1554 1554 1554 1554 1555 1556 1557 1557 1556 1557 1556 1556 1557 1556 1555 1555 1554 1554 1555 1555 1554 1551 1551 1551 1552 1552 1551
1535 1538 1539 1540 1540 1542 1543 1546 1548 1549 1548 1549 1551 1551 1551 1552 1553 1554 1554 1554 1555 1555 1556 1556 1555 1556 1556 1556 1557 1556 1554 1553 1554 1554 1556 1554 1553 1551 1550 1550 1550 1549 1551
1536 1539 1539 1541 1541 1543 1544 1548 1549 1548 1548 1549 1552 1552 1551 1552 1553 1554 1554 1554 1555 1556 1556 1555 1555 1556 1556 1556 1556 1556 1554 1553 1553 1554 1553 1551 1550 1549 1548 1549 1550 1548 1547
1538 1540 1539 1540 1542 1544 1544 1545 1546 1547 1548 1549 1551 1551 1551 1552 1554 1555 1556 1554 1554 1556 1556 1553 1553 1553 1554 1555 1555 1554 1553 1552 1553 1552 1552 1551 1547 1546 1546 1546 1547 1546 1545
1538 1540 1539 1541 1542 1543 1544 1545 1546 1548 1548 1548 1550 1551 1552 1553 1555 1556 1555 1554 1555 1555 1553 1551 1551 1553 1555 1555 1553 1553 1552 1550 1551 1550 1549 1548 1546 1544 1544 1543 1544 1544 1543
1539 1540 1542 1543 1543 1544 1544 1546 1547 1548 1548 1549 1551 1552 1552 1553 1554 1555 1554 1555 1554 1554 1552 1551 1552 1552 1554 1553 1552 1552 1550 1548 1547 1545 1544 1545 1543 1542 1541 1541 1542 1541 1541
1539 1541 1543 1545 1545 1545 1544 1545 1547 1548 1549 1549 1550 1552 1551 1552 1553 1554 1554 1554 1553 1552 1552 1552 1553 1553 1553 1553 1551 1547 1548 1547 1545 1544 1543 1540 1539 1539 1539 1539 1539 1538 1537
1539 1540 1543 1543 1544 1545 1545 1545 1546 1548 1549 1550 1550 1550 1551 1553 1553 1553 1553 1553 1552 1551 1552 1552 1553 1554 1552 1553 1551 1546 1548 1546 1545 1543 1542 1541 1539 1537 1536 1536 1536 1535 1535
1540 1542 1543 1543 1544 1544 1545 1545 1547 1549 1550 1551 1551 1551 1552 1552 1553 1553 1552 1552 1552 1553 1553 1553 1553 1553 1554 1553 1552 1550 1550 1548 1546 1542 1541 1540 1538 1536 1535 1535 1534 1532 1531
1541 1542 1542 1542 1544 1545 1546 1547 1548 1549 1551 1551 1551 1552 1552 1553 1553 1554 1553 1553 1553 1553 1554 1554 1554 1554 1553 1552 1552 1552 1549 1547 1547 1544 1541 1539 1537 1534 1533 1533 1530 1529 1528
1541 1542 1542 1543 1543 1544 1545 1547 1547 1549 1549 1551 1551 1551 1552 1553 1553 1554 1555 1554 1554 1555 1554 1554 1554 1552 1551 1550 1549 1548 1547 1546 1544 1542 1540 1537 1535 1533 1531 1530 1529 1527 1525
1541 1542 1543 1543 1542 1543 1545 1545 1546 1547 1548 1548 1549 1550 1551 1552 1553 1554 1555 1556 1556 1556 1555 1554 1553 1551 1550 1549 1548 1546 1544 1543 1542 1540 1537 1535 1532 1530 1529 1528 1527 1524 1522
1541 1542 1543 1543 1543 1544 1545 1545 1545 1546 1545 1547 1549 1549 1550 1551 1552 1554 1554 1555 1555 1554 1553 1552 1551 1549 1548 1547 1545 1543 1541 1539 1536 1533 1532 1529 1526 1525 1524 1523 1522 1519 1517
1541 1544 1543 1543 1544 1544 1544 1545 1545 1545 1545 1547 1547 1548 1548 1549 1550 1551 1552 1552 1551 1550 1549 1549 1548 1547 1546 1544 1542 1540 1537 1534 1531 1528 1525 1523 1521 1519 1516 1516 1515 1513 1512
1540 1542 1542 1543 1545 1546 1545 1544 1544 1544 1545 1546 1547 1547 1547 1548 1549 1550 1550 1549 1548 1547 1547 1547 1545 1544 1541 1539 1537 1534 1532 1529 1525 1522 1520 1517 1516 1515 1512 1509 1506 1505 1504
1537 1539 1542 1544 1547 1549 1548 1546 1543 1543 1544 1544 1545 1546 1546 1546 1547 1547 1547 1547 1545 1545 1544 1542 1540 1539 1536 1533 1531 1528 1525 1522 1520 1517 1514 1511 1509 1507 1506 1504 1500 1498 1497
1534 1535 1538 1543 1546 1552 1550 1547 1546 1542 1541 1542 1543 1543 1543 1543 1543 1544 1545 1542 1541 1540 1538 1536 1533 1531 1529 1527 1524 1521 1517 1514 1512 1510 1507 1504 1501 1500 1499 1498 1495 1493 1491
1531 1533 1534 1537 1538 1547 1552 1549 1548 1544 1541 1542 1542 1542 1542 1541 1542 1541 1541 1539 1536 1533 1530 1527 1526 1525 1524 1522 1518 1513 1510 1508 1505 1503 1500 1497 1494 1493 1492 1491 1489 1487 1486
1531 1532 1533 1539 1540 1542 1552 1549 1545 1544 1540 1542 1542 1542 1540 1539 1538 1536 1534 1533 1530 1528 1527 1524 1522 1520 1519 1518 1514 1508 1502 1499 1499 1497 1495 1492 1489 1486 1484 1483 1482 1480 1478
1531 1531 1534 1537 1539 1542 1543 1548 1542 1543 1540 1541 1541 1540 1537 1536 1534 1530 1528 1527 1525 1524 1524 1521 1519 1516 1514 1512 1510 1506 1499 1490 1488 1489 1487 1484 1481 1479 1477 1474 1473 1472 1470
1534 1534 1535 1537 1538 1539 1541 1543 1541 1541 1539 1539 1540 1538 1536 1533 1530 1527 1524 1522 1520 1519 1518 1516 1514 1511 1509 1505 1502 1499 1496 1490 1485 1478 1477 1476 1473 1470 1468 1465 1464 1463 1462
1537 1537 1537 1537 1537 1538 1539 1539 1537 1536 1537 1539 1538 1537 1535 1531 1528 1525 1522 1519 1517 1515 1513 1509 1505 1503 1501 1498 1494 1491 1488 1483 1479 1475 1467 1463 1463 1462 1460 1459 1457 1454 1453
1541 1540 1539 1537 1537 1538 1537 1535 1535 1535 1536 1536 1534 1532 1529 1526 1523 1521 1517 1513 1510 1507 1504 1500 1495 1492 1489 1487 1484 1481 1479 1476 1472 1468 1461 1454 1453 1454 1453 1452 1450 1448 1445